Volver al catálogo

STARLINK-1276

ActivoComunicacionesVLEO
NORAD 45368·PAYLOAD·🇺🇸 United States

Lanzado Mar 18, 2020 desde Cape Canaveral Space Force Station

Loading…

Próximos Pases (próximas 24 horas)

TLE

ActualizadoSource: CelesTrak SupGP

Época: Sep 14, 2026, 21:03 UTC

1 45368C 20019J   26257.87756944  .00041066  00000+0  19623-2 0  2576
2 45368  53.0717  26.8173 0000839  49.7455   5.9326 15.18485383    14

Sigue STARLINK-1276 en tiempo real con AllMySat

Download on the App Store